#timestamp,LO_Frequency,Hit,StdDev 
1651089615.6,286046998.9,N
1651089635.4,286046998.6,N
1651089655.3,286046998.4,N
1651089675.1,286046998.8,N
1651089695.9,286046999.4,N
1651089715.7,286046999.4,N
1651089735.5,286046996.5,Y
1651089755.4,286046999.4,P
1651089775.2,286046996.6,P
1651089795.0,286046999.4,N
1651089795.9,286046999.4,N
1651089815.8,286046997.0,N
1651089835.6,286046998.4,N
1651089855.5,286046998.7,N
1651089875.3,286047000.1,N
1651089895.1,286046998.1,N
1651089915.9,286046998.1,N
1651089935.7,286046998.6,N
1651089955.6,286047000.6,N
1651089975.4,286046998.5,N
1651089995.2,286046998.3,N
1651090015.1,286046999.4,N
1651090016.0,286046999.4,N
1651090035.8,286046999.2,N
1651090055.6,286046996.6,Y
1651090075.5,286047010.8,P
1651090095.3,286047009.4,N
1651090115.2,286047016.1,N
1651090135.9,286047016.4,N
1651090155.7,286047014.0,N
1651090175.6,286047011.3,N
1651090195.4,286047008.1,N
1651090215.2,286047008.7,N
1651090235.1,286047007.2,N
1651090236.0,286047007.2,N
1651090255.8,286047006.7,N
1651090275.7,286047006.7,N
1651090295.5,286047006.9,N
1651090315.3,286047007.4,N
1651090335.2,286047005.2,N
1651090355.0,286047007.6,N
1651090355.9,286047007.6,N
1651090375.8,286047005.9,N
1651090395.6,286047003.0,N
1651090415.4,286047003.0,N
1651090435.3,286047003.2,N
1651090455.1,286047002.9,N
1651090475.8,286047003.5,N
1651090495.7,286047003.9,N
1651090515.5,286047004.1,N
1651090535.4,286047001.9,N
1651090555.2,286047001.6,N
1651090575.0,286047000.9,N
1651090575.9,286047000.9,N
1651090595.8,286047001.0,N
1651090615.6,286047000.6,N
1651090635.5,286047000.6,N
1651090655.3,286046998.2,N
1651090675.1,286046998.7,N
1651090695.9,286046999.1,N
1651090715.7,286046999.4,N
1651090735.5,286046996.5,N
1651090755.4,286046999.0,N
1651090775.2,286046998.6,N
1651090795.1,286047000.7,N
1651090796.0,286047000.7,N
1651090815.8,286047000.8,N
1651090835.6,286047000.7,N
1651090855.5,286047001.0,N
1651090875.3,286046998.7,N
1651090895.1,286047000.7,N
1651090915.9,286046999.9,N
1651090935.7,286047000.9,N
1651090955.6,286047001.1,N
1651090975.4,286047000.7,N
1651090995.2,286047001.1,N
1651091015.1,286046998.8,N
1651091016.0,286046998.8,N
1651091035.8,286046998.9,N
1651091055.7,286046998.7,N
1651091075.5,286046998.6,N
1651091095.3,286046998.2,N
1651091115.2,286046999.0,N
1651091135.9,286046998.1,N
1651091155.7,286046998.6,N
1651091175.6,286046998.6,N
1651091195.4,286046999.2,N
1651091215.2,286046999.5,N
1651091235.1,286046999.6,N
1651091236.0,286046999.6,N
1651091255.8,286046999.6,N
1651091275.7,286046997.1,N
1651091295.5,286046996.6,Y
1651091315.3,286046998.8,P
1651091335.2,286046998.7,P
1651091355.0,286047001.2,P
1651091355.9,286047001.2,N
1651091375.8,286046998.8,N
1651091395.6,286046999.0,N
1651091415.4,286047000.9,N
1651091435.3,286047000.4,N
1651091455.1,286046998.5,N
1651091475.8,286047000.4,N
1651091495.7,286047002.8,N
1651091515.5,286047002.6,N
1651091535.4,286047000.1,N
1651091555.2,286047001.4,N
1651091575.0,286047001.4,N
1651091575.9,286047001.4,N
1651091595.8,286047002.3,N
1651091615.6,286046998.2,N
1651091635.4,286047000.5,N
1651091655.3,286047000.3,N
1651091675.1,286046999.8,N
1651091695.9,286047000.1,N
1651091715.7,286047001.7,N
1651091735.5,286047004.3,Y
1651091755.4,286047001.7,P
1651091775.2,286047002.0,P
1651091795.0,286047002.5,P
1651091796.0,286047002.5,Y
1651091815.8,286047000.1,P
1651091835.6,286046999.7,N
1651091855.5,286047002.6,P
1651091875.3,286047002.1,N
1651091895.1,286047002.5,N
1651091915.9,286047001.5,N
1651091935.7,286047000.1,N
1651091955.6,286047002.5,N
1651091975.4,286047000.5,N
1651091995.2,286047002.0,N
1651092015.1,286047000.7,N
1651092016.0,286047000.7,N
1651092035.8,286046999.9,N
1651092055.7,286047000.1,N
1651092075.5,286047002.6,N
1651092095.3,286046999.9,N
1651092115.2,286046999.9,N
1651092135.9,286047000.1,N
1651092155.7,286047002.7,N
1651092175.6,286047000.1,N
1651092195.4,286047000.1,N
1651092215.3,286047000.3,N
1651092235.1,286047001.0,N
1651092236.0,286047001.0,N
1651092255.8,286047000.1,N
1651092275.7,286047011.9,Y
1651092295.5,286047001.0,P
1651092315.3,286046998.1,P
1651092335.2,286047000.5,N
1651092355.0,286046998.1,N
1651092355.9,286046998.1,N
1651092375.8,286046998.5,N
1651092395.6,286046998.2,N
1651092415.4,286047000.8,N
1651092435.3,286047000.3,N
1651092455.1,286046998.2,N
1651092475.8,286047000.7,N
1651092495.7,286047000.2,N
1651092515.5,286046999.3,N
1651092535.4,286046996.5,N
1651092555.2,286046999.6,N
1651092575.0,286046999.0,N
1651092575.9,286046999.0,N
1651092595.8,286046999.2,N
1651092615.6,286046998.6,N
1651092635.4,286046998.6,N
1651092655.3,286046998.2,N
1651092675.1,286046998.8,N
1651092695.9,286046998.1,N
1651092715.7,286046998.2,N
1651092735.5,286046998.1,N
1651092755.4,286046998.5,N
1651092775.2,286047001.2,N
1651092795.0,286046998.2,N
1651092795.9,286046998.2,N
1651092815.8,286046998.4,N
1651092835.6,286046999.5,N
1651092855.5,286046996.6,Y
1651092875.3,286047001.0,P
1651092895.1,286047001.1,N
1651092915.9,286047002.1,N
1651092935.7,286047002.5,N
1651092955.5,286047002.4,N
1651092975.4,286047002.8,N
1651092995.2,286047000.2,N
1651093015.1,286047002.3,N
1651093016.0,286047002.3,N
1651093035.8,286047002.7,N
1651093055.6,286047000.6,N
1651093075.5,286047001.5,N
1651093095.3,286047002.7,N
1651093115.2,286047001.7,N
1651093135.9,286047001.8,N
1651093155.7,286047004.0,Y
1651093175.6,286047001.0,P
1651093195.4,286047000.2,N
